Regional Weather Roundup
Issued by NWS

Home | Current Version | Previous Version | Graphics & Text | Print | Product List | Glossary On
Versions: 1 2 3 4 5 6 7 8 9 10 11 12 13 14 15 16 17 18 19 20 21 22 23 24 25 26 27 28 29 30 31 32 33 34 35 36 37 38 39 40 41 42 43 44 45 46 47 48 49 50
000
ASUS43 KTOP 231859
RWRKS

WEATHER ROUNDUP FOR KANSAS
NATIONAL WEATHER SERVICE GOODLAND KS
200 PM CDT MON APR 23 2018

NOTE:  "FAIR" INDICATES FEW OR NO CLOUDS BELOW 12,000 FEET WITH NO
SIGNIFICANT WEATHER AND/OR OBSTRUCTIONS TO VISIBILITY.

KSZ001>006-013>018-027>032-041>047-232000-
NORTHWEST KANSAS

CITY           SKY/WX    TMP DP  RH WIND       PRES   REMARKS
GOODLAND       SUNNY     63  38  39 S15G29    30.11F
HAYS           SUNNY     66  39  37 NE8       30.12F
HILL CITY      PTSUNNY   66  41  40 VRB5      30.13F
RUSSELL        SUNNY     69  40  34 MISG      30.11F
$$

KSZ061>065-074>080-084>089-232000-
SOUTHWEST KANSAS

CITY           SKY/WX    TMP DP  RH WIND       PRES   REMARKS
DODGE CITY     MOSUNNY   66  40  38 MISG      30.13F
GARDEN CITY    MOSUNNY   65  40  39 SE12G20   30.12F
GREAT BEND     SUNNY     66  42  41 NE7       30.13F
LIBERAL        SUNNY     66  40  38 S15       30.13F
$$

KSZ066>073-081>083-090>101-232000-
SOUTHEAST KANSAS

CITY           SKY/WX    TMP DP  RH WIND       PRES   REMARKS
CHANUTE        CLOUDY    71  47  42 N8        30.05F
COFFEYVILLE    SUNNY     71  49  45 N10       30.04F
HUTCHINSON     SUNNY     69  42  37 N7        30.10F
MEDICINE LODGE   N/A     68  43  40 CALM      30.10F
NEWTON         SUNNY     67  38  34 VRB5      30.11F
PARSONS        SUNNY     71  49  45 N12G21    30.06F
WICHITA INTL   MOSUNNY   71  40  32 N9G20     30.10F
WICHITA JABRA  SUNNY     69  39  33 NE9       30.10F
WINFIELD       MOSUNNY   70  47  43 NE6       30.09F
$$

KSZ007>012-019>026-033>040-048>060-102>105-232000-
NORTHEAST KANSAS

CITY           SKY/WX    TMP DP  RH WIND       PRES   REMARKS
CONCORDIA      SUNNY     70  32  24 E8G18     30.11F
EMPORIA        SUNNY     71  42  35 NE9G18    30.07F
LAWRENCE       SUNNY     74  32  21 E12G22    30.06F
MANHATTAN      MOSUNNY   72  31  22 E9        30.09F
OLATHE IND     SUNNY     73  36  25 NE9G18    30.06F
OLATHE EXE     SUNNY     71  35  26 NE12G20   30.05F
SALINA         SUNNY     72  36  26 NE5       30.11F
TOPEKA BILLARD SUNNY     75  38  26 NE16G22   30.06F
TOPEKA FORBES  SUNNY     74  36  25 N12G17    30.07F
$$




USA.gov is the U.S. government's official web portal to all federal, state and local government web resources and services.